Regional Weather Roundup
Issued by NWS

Home | Current Version | Previous Version | Graphics & Text | Print | Product List | Glossary On
Versions: 1 2 3 4 5 6 7 8 9 10 11 12 13 14 15 16 17 18 19 20 21 22 23 24 25 26 27 28 29 30 31 32 33 34 35 36 37 38 39 40 41 42 43 44 45 46 47 48 49 50
000
ASUS45 KCYS 060710
RWRWY

WYOMING REGIONAL WEATHER ROUNDUP
NATIONAL WEATHER SERVICE CHEYENNE WY
1200 AM MST FRI MAR 06 2015

NOTE:  "FAIR" INDICATES FEW OR NO CLOUDS BELOW 12,000 FEET
WITH NO SIGNIFICANT WEATHER AND/OR OBSTRUCTIONS TO VISIBILITY.

WYZ001-060800-
YELLOWSTONE NATIONAL PARK

CITY           SKY/WX    TMP DP  RH WIND       PRES   REMARKS
LK YELLOWSTONE   N/A      7   2  80 CALM      30.33F
W YELLOWSTONE  NOT AVBL

$$
WYZ002>013-054>058-071-098>099-060800-
NORTHERN WYOMING

CITY           SKY/WX    TMP DP  RH WIND       PRES   REMARKS
JACKSON        FAIR      16  10  79 N16       30.36R WCI   0
CODY           FAIR      41  10  28 W16G30    30.17F
GREYBULL       FAIR      25  17  72 CALM      30.23S
WORLAND        FAIR      24  17  74 VRB5      30.23R WCI  18
SHERIDAN       FAIR      25  15  66 CALM      30.14F
BUFFALO        FAIR      31  15  52 SW7       30.15S WCI  24
GILLETTE       FAIR      33  17  51 SW14      30.13S WCI  23
HULETT         PTSUNNY   34  18  51 SW14      30.12F WCI  24
NEWCASTLE      FAIR      23  16  74 CALM      30.16F

$$
WYZ014>020-022>026-101>103-060800-
CENTRAL WYOMING

CITY           SKY/WX    TMP DP  RH WIND       PRES   REMARKS
BIG PINEY      FAIR      24  14  65 N9        30.35S WCI  14
PINEDALE       FAIR      10   5  79 W5        30.36F WCI   2
DUBOIS         FAIR      19   9  63 NW22      30.27S WCI   3
LANDER         FAIR      20  12  71 W3        30.22S
RIVERTON       FAIR      15   7  70 CALM      30.24S
CASPER         CLOUDY    31  19  61 SW14      30.21F WCI  21
DOUGLAS        CLOUDY    19  14  81 CALM      30.21F

$$
WYZ021-027>030-104>119-060800-
SOUTHERN WYOMING

CITY           SKY/WX    TMP DP  RH WIND       PRES   REMARKS
EVANSTON       FAIR      22  13  68 SW10      30.40S WCI  11
FORT BRIDGER   CLOUDY    29  15  55 W10       30.40F WCI  20
ROCK SPRINGS   FAIR      27  15  61 SW12      30.34S WCI  17
DIXON          FAIR      15  10  82 CALM      30.40S
RAWLINS        FAIR      27  15  61 W28G37    30.26S WCI  11
SARATOGA       PTSUNNY   23  14  68 SE8       30.33R WCI  14
LARAMIE        CLOUDY    26  12  55 SW13      30.25S WCI  15
CHEYENNE       CLOUDY    32  13  45 W6        30.22S WCI  26
TORRINGTON     FAIR      30  20  66 SW3       30.21F
PINE BLUFFS    FAIR      32  18  55 W8        30.23S WCI  25

$$



USA.gov is the U.S. government's official web portal to all federal, state and local government web resources and services.